Location: Nantong Television Tower
(32.0188°N, 120.8512°E)
Time: 06:28:29
(UTC+08:00)

Vanguard 3 - Visible Passes

Search period start: 05 July 2015 00:00
Search period end: 15 July 2015 00:00
Orbit: 509 x 3270 km, 33.3° (Epoch: 04 July)

Date Brightness Start Highest point End Pass type
(mag) Time Alt. Az. Time Alt. Az. Time Alt. Az.
05 Jul 9.4 00:14:50 10° W 00:37:44 13° SE 00:38:54 10° SE visible
05 Jul 10.4 02:42:37 23° SSW 02:42:37 23° SSW 02:51:58 10° SSE visible
05 Jul 7.6 20:51:23 10° W 20:56:33 80° N 21:04:12 15° E visible
05 Jul 8.3 23:02:15 10° W 23:08:44 66° SW 23:08:44 66° SW visible
06 Jul 10.5 01:36:01 14° SSE 01:36:01 14° SSE 01:38:03 10° SSE visible
06 Jul 10.8 03:40:51 12° SSW 03:40:51 12° SSW 03:44:58 10° SSW visible
06 Jul 7.1 19:39:14 10° W 19:43:31 80° N 19:50:26 10° E visible
06 Jul 7.8 21:50:00 10° W 21:55:55 84° SSW 21:58:49 47° ESE visible
07 Jul 9.7 00:01:16 10° W 00:03:23 21° W 00:03:23 21° W visible
07 Jul 11.0 02:33:43 12° S 02:33:43 12° S 02:34:50 10° S visible
07 Jul 7.4 20:37:51 10° W 20:42:42 82° N 20:49:04 17° E visible
07 Jul 8.4 22:48:41 10° W 22:53:39 51° WSW 22:53:39 51° WSW visible
08 Jul10.701:26:14SSE01:26:14SSE00:58:14Wvisible
08 Jul 7.0 19:25:41 10° W 19:29:45 76° N 19:36:01 10° E visible
08 Jul 7.6 21:36:26 10° W 21:41:56 76° SSW 21:44:02 51° SE visible
08 Jul 9.9 23:47:50 10° W 23:48:37 14° W 23:48:37 14° W visible
09 Jul 7.2 20:24:19 10° W 20:28:51 86° N 20:34:30 17° E visible
09 Jul 8.6 22:35:11 10° W 22:39:06 39° WSW 22:39:06 39° WSW visible
10 Jul 7.5 21:22:54 10° W 21:27:59 66° SSW 21:29:39 50° SE visible
11 Jul 6.9 20:10:46 10° W 20:15:01 86° SSW 20:20:15 16° ESE visible
11 Jul 8.8 22:21:45 10° W 22:24:51 30° WSW 22:24:51 30° WSW visible
12 Jul 7.5 21:09:24 10° W 21:14:04 54° SSW 21:15:31 45° SSE visible
13 Jul 6.8 19:57:11 10° W 20:01:13 76° SSW 20:06:13 15° ESE visible
13 Jul 8.9 22:08:26 10° W 22:10:49 23° WSW 22:10:49 23° WSW visible
14 Jul 7.7 20:55:55 10° W 21:00:12 42° SSW 21:01:35 36° SSE visible
